Time,TemperatureF,DewpointF,PressureIn,WindDirection,WindDirectionDegrees,WindSpeedMPH,WindSpeedGustMPH,Humidity,HourlyPrecipIn,Conditions,Clouds,dailyrainin,SoftwareType,DateUTC
2013-03-31 00:05:00,62.9,42.4,29.81,WNW,291,4.0,4.0,47,0.00,,,0.00,Wunderground v.1.15,2013-03-30 23:05:00,
2013-03-31 00:11:00,62.7,42.7,29.81,WNW,292,2.0,5.0,48,0.00,,,0.00,Wunderground v.1.15,2013-03-30 23:11:00,
2013-03-31 00:20:00,62.7,42.7,29.81,WNW,286,5.0,5.0,48,0.00,,,0.00,Wunderground v.1.15,2013-03-30 23:20:00,
2013-03-31 00:25:00,62.8,42.8,29.81,West,279,5.0,7.0,48,0.00,,,0.00,Wunderground v.1.15,2013-03-30 23:25:00,
2013-03-31 00:35:00,63.0,43.0,29.81,NW,318,7.0,9.0,48,0.00,,,0.00,Wunderground v.1.15,2013-03-30 23:35:00,
2013-03-31 00:41:00,63.0,43.0,29.81,WNW,299,8.0,9.0,48,0.00,,,0.00,Wunderground v.1.15,2013-03-30 23:41:00,
2013-03-31 00:50:00,62.4,43.5,29.81,WNW,294,7.0,8.0,50,0.00,,,0.00,Wunderground v.1.15,2013-03-30 23:50:00,
2013-03-31 00:55:00,62.0,43.7,29.80,WNW,297,6.0,6.0,51,0.00,,,0.00,Wunderground v.1.15,2013-03-30 23:55:00,
2013-03-31 01:01:00,62.0,43.7,29.80,WNW,300,5.0,6.0,51,0.00,,,0.00,Wunderground v.1.15,2013-03-31 00:01:00,
2013-03-31 01:10:00,62.5,43.6,29.80,WNW,288,7.0,9.0,50,0.00,,,0.00,Wunderground v.1.15,2013-03-31 00:10:00,
2013-03-31 01:20:00,62.6,43.7,29.81,SW,223,8.0,9.0,50,0.00,,,0.00,Wunderground v.1.15,2013-03-31 00:20:00,
2013-03-31 01:30:00,61.9,47.0,29.80,West,268,8.0,8.0,58,0.00,,,0.00,Wunderground v.1.15,2013-03-31 00:30:00,
2013-03-31 01:40:00,61.8,45.5,29.80,WSW,258,7.0,7.0,55,0.00,,,0.00,Wunderground v.1.15,2013-03-31 00:40:00,
2013-03-31 01:50:00,62.0,45.6,29.80,West,259,7.0,7.0,55,0.00,,,0.00,Wunderground v.1.15,2013-03-31 00:50:00,
2013-03-31 03:05:00,61.7,43.9,29.79,West,260,4.0,4.0,52,0.00,,,0.00,Wunderground v.1.15,2013-03-31 01:05:00,
2013-03-31 03:10:00,61.9,43.0,29.79,West,261,5.0,5.0,50,0.00,,,0.00,Wunderground v.1.15,2013-03-31 01:10:00,
2013-03-31 03:20:00,61.7,43.4,29.79,WNW,287,5.0,8.0,51,0.00,,,0.00,Wunderground v.1.15,2013-03-31 01:20:00,
2013-03-31 03:25:00,61.7,43.4,29.79,WNW,290,7.0,7.0,51,0.00,,,0.00,Wunderground v.1.15,2013-03-31 01:25:00,
2013-03-31 03:30:00,61.6,43.8,29.79,West,268,8.0,11.0,52,0.00,,,0.00,Wunderground v.1.15,2013-03-31 01:30:00,
2013-03-31 03:40:00,61.3,44.0,29.78,WNW,292,10.0,12.0,53,0.00,,,0.00,Wunderground v.1.15,2013-03-31 01:40:00,
2013-03-31 03:45:00,61.0,44.2,29.78,WNW,294,10.0,10.0,54,0.00,,,0.00,Wunderground v.1.15,2013-03-31 01:45:00,
2013-03-31 03:50:00,60.9,44.6,29.78,West,271,9.0,11.0,55,0.00,,,0.00,Wunderground v.1.15,2013-03-31 01:50:00,
2013-03-31 04:05:00,60.6,44.8,29.78,West,278,9.0,9.0,56,0.00,,,0.00,Wunderground v.1.15,2013-03-31 02:05:00,
2013-03-31 04:10:00,60.5,45.2,29.78,WNW,302,9.0,9.0,57,0.00,,,0.00,Wunderground v.1.15,2013-03-31 02:10:00,
2013-03-31 04:15:00,60.3,45.0,29.78,West,273,8.0,10.0,57,0.00,,,0.00,Wunderground v.1.15,2013-03-31 02:15:00,
2013-03-31 04:25:00,60.2,44.9,29.78,West,259,6.0,6.0,57,0.00,,,0.00,Wunderground v.1.15,2013-03-31 02:25:00,
2013-03-31 04:30:00,60.3,45.0,29.78,West,269,4.0,6.0,57,0.00,,,0.00,Wunderground v.1.15,2013-03-31 02:30:00,
2013-03-31 04:40:00,60.4,46.0,29.78,SW,229,3.0,3.0,59,0.00,,,0.00,Wunderground v.1.15,2013-03-31 02:40:00,
2013-03-31 04:45:00,60.4,46.0,29.78,WSW,240,3.0,7.0,59,0.00,,,0.00,Wunderground v.1.15,2013-03-31 02:45:00,
2013-03-31 04:54:00,60.5,45.6,29.78,SW,220,5.0,5.0,58,0.00,,,0.00,Wunderground v.1.15,2013-03-31 02:54:00,
2013-03-31 05:00:00,60.3,45.0,29.78,WNW,286,3.0,5.0,57,0.00,,,0.00,Wunderground v.1.15,2013-03-31 03:00:00,
2013-03-31 05:10:00,60.4,45.1,29.78,WNW,284,5.0,5.0,57,0.00,,,0.00,Wunderground v.1.15,2013-03-31 03:10:00,
2013-03-31 05:15:00,60.7,44.4,29.77,SW,225,5.0,5.0,55,0.00,,,0.00,Wunderground v.1.15,2013-03-31 03:15:00,
2013-03-31 05:20:00,60.9,44.6,29.77,WSW,250,7.0,10.0,55,0.00,,,0.00,Wunderground v.1.15,2013-03-31 03:20:00,
2013-03-31 05:30:00,60.7,44.9,29.77,WSW,241,6.0,7.0,56,0.00,,,0.00,Wunderground v.1.15,2013-03-31 03:30:00,
2013-03-31 05:39:00,60.5,44.7,29.77,WSW,250,5.0,6.0,56,0.00,,,0.00,Wunderground v.1.15,2013-03-31 03:39:00,
2013-03-31 05:44:00,60.4,45.1,29.77,WSW,244,5.0,7.0,57,0.00,,,0.00,Wunderground v.1.15,2013-03-31 03:44:00,
2013-03-31 05:50:00,60.2,45.4,29.77,WSW,249,5.0,7.0,58,0.00,,,0.00,Wunderground v.1.15,2013-03-31 03:50:00,
2013-03-31 06:04:00,60.0,44.7,29.76,WSW,244,5.0,5.0,57,0.00,,,0.00,Wunderground v.1.15,2013-03-31 04:04:00,
2013-03-31 06:09:00,60.2,44.4,29.76,SW,227,5.0,5.0,56,0.00,,,0.00,Wunderground v.1.15,2013-03-31 04:09:00,
2013-03-31 06:14:00,60.3,44.5,29.76,SW,234,5.0,6.0,56,0.00,,,0.00,Wunderground v.1.15,2013-03-31 04:14:00,
2013-03-31 06:19:00,60.3,45.0,29.76,SW,234,5.0,6.0,57,0.00,,,0.00,Wunderground v.1.15,2013-03-31 04:19:00,
2013-03-31 06:34:00,60.6,43.9,29.76,West,264,7.0,7.0,54,0.00,,,0.00,Wunderground v.1.15,2013-03-31 04:34:00,
2013-03-31 06:39:00,60.5,43.8,29.76,WNW,293,6.0,7.0,54,0.00,,,0.00,Wunderground v.1.15,2013-03-31 04:39:00,
2013-03-31 06:49:00,60.8,43.1,29.76,West,276,6.0,6.0,52,0.00,,,0.00,Wunderground v.1.15,2013-03-31 04:49:00,
2013-03-31 06:54:00,60.8,42.5,29.76,WNW,282,5.0,6.0,51,0.00,,,0.00,Wunderground v.1.15,2013-03-31 04:54:00,
2013-03-31 06:59:00,60.6,42.4,29.76,WNW,286,6.0,6.0,51,0.00,,,0.00,Wunderground v.1.15,2013-03-31 04:59:00,
2013-03-31 07:09:00,60.3,42.1,29.76,West,277,4.0,4.0,51,0.00,,,0.00,Wunderground v.1.15,2013-03-31 05:09:00,
2013-03-31 07:14:00,60.4,42.2,29.76,West,277,3.0,4.0,51,0.00,,,0.00,Wunderground v.1.15,2013-03-31 05:14:00,
2013-03-31 07:24:00,60.4,42.2,29.76,West,272,3.0,3.0,51,0.00,,,0.00,Wunderground v.1.15,2013-03-31 05:24:00,
2013-03-31 07:29:00,60.4,42.2,29.76,WSW,254,4.0,4.0,51,0.00,,,0.00,Wunderground v.1.15,2013-03-31 05:29:00,
2013-03-31 07:40:00,60.3,42.1,29.77,West,270,4.0,4.0,51,0.00,,,0.00,Wunderground v.1.15,2013-03-31 05:40:00,
2013-03-31 07:50:00,60.2,44.4,29.77,WSW,240,3.0,5.0,56,0.00,,,0.00,Wunderground v.1.15,2013-03-31 05:50:00,
2013-03-31 07:55:00,59.9,45.1,29.76,WSW,244,4.0,6.0,58,0.00,,,0.00,Wunderground v.1.15,2013-03-31 05:55:00,
2013-03-31 08:00:00,60.0,44.3,29.76,WSW,250,4.0,4.0,56,0.00,,,0.00,Wunderground v.1.15,2013-03-31 06:00:00,
2013-03-31 08:10:00,60.3,43.6,29.76,WSW,241,5.0,5.0,54,0.00,,,0.00,Wunderground v.1.15,2013-03-31 06:10:00,
2013-03-31 08:20:00,60.6,43.4,29.76,West,275,5.0,5.0,53,0.00,,,0.00,Wunderground v.1.15,2013-03-31 06:20:00,
2013-03-31 08:35:00,60.4,43.7,29.76,West,267,3.0,4.0,54,0.00,,,0.00,Wunderground v.1.15,2013-03-31 06:35:00,
2013-03-31 08:40:00,60.4,43.7,29.76,WNW,290,4.0,4.0,54,0.00,,,0.00,Wunderground v.1.15,2013-03-31 06:40:00,
2013-03-31 08:45:00,60.4,43.7,29.76,WNW,291,4.0,4.0,54,0.00,,,0.00,Wunderground v.1.15,2013-03-31 06:45:00,
2013-03-31 08:55:00,60.6,43.9,29.76,West,271,2.0,7.0,54,0.00,,,0.00,Wunderground v.1.15,2013-03-31 06:55:00,
2013-03-31 09:00:00,61.3,43.5,29.77,West,275,4.0,10.0,52,0.00,,,0.00,Wunderground v.1.15,2013-03-31 07:00:00,
2013-03-31 09:10:00,62.0,44.2,29.77,WNW,295,5.0,5.0,52,0.00,,,0.00,Wunderground v.1.15,2013-03-31 07:10:00,
2013-03-31 09:15:00,62.0,44.2,29.77,West,274,5.0,5.0,52,0.00,,,0.00,Wunderground v.1.15,2013-03-31 07:15:00,
2013-03-31 09:20:00,62.2,44.9,29.76,West,275,5.0,5.0,53,0.00,,,0.00,Wunderground v.1.15,2013-03-31 07:20:00,
2013-03-31 09:30:00,62.7,43.8,29.76,WSW,240,5.0,5.0,50,0.00,,,0.00,Wunderground v.1.15,2013-03-31 07:30:00,
2013-03-31 09:40:00,62.8,43.9,29.76,West,279,5.0,5.0,50,0.00,,,0.00,Wunderground v.1.15,2013-03-31 07:40:00,
2013-03-31 09:45:00,63.2,44.2,29.76,West,272,4.0,5.0,50,0.00,,,0.00,Wunderground v.1.15,2013-03-31 07:45:00,
2013-03-31 09:54:00,63.3,44.3,29.76,WSW,244,3.0,3.0,50,0.00,,,0.00,Wunderground v.1.15,2013-03-31 07:54:00,
2013-03-31 10:00:00,63.4,44.4,29.76,WSW,238,2.0,3.0,50,0.00,,,0.00,Wunderground v.1.15,2013-03-31 08:00:00,
2013-03-31 10:10:00,64.0,43.4,29.76,SW,234,5.0,6.0,47,0.00,,,0.00,Wunderground v.1.15,2013-03-31 08:10:00,
2013-03-31 10:20:00,64.3,44.2,29.76,West,273,6.0,6.0,48,0.00,,,0.00,Wunderground v.1.15,2013-03-31 08:20:00,
2013-03-31 10:25:00,64.6,43.9,29.76,WSW,257,6.0,6.0,47,0.00,,,0.00,Wunderground v.1.15,2013-03-31 08:25:00,
2013-03-31 10:30:00,64.7,43.4,29.76,WNW,284,6.0,6.0,46,0.00,,,0.00,Wunderground v.1.15,2013-03-31 08:30:00,
2013-03-31 10:40:00,65.6,43.7,29.75,SW,233,6.0,6.0,45,0.00,,,0.00,Wunderground v.1.15,2013-03-31 08:40:00,
2013-03-31 10:45:00,65.9,43.9,29.75,SW,231,7.0,7.0,45,0.00,,,0.00,Wunderground v.1.15,2013-03-31 08:45:00,
2013-03-31 10:50:00,66.2,43.6,29.75,West,271,7.0,15.0,44,0.00,,,0.00,Wunderground v.1.15,2013-03-31 08:50:00,
2013-03-31 11:05:00,65.8,43.9,29.75,West,278,10.0,11.0,45,0.00,,,0.00,Wunderground v.1.15,2013-03-31 09:05:00,
2013-03-31 11:10:00,65.9,43.9,29.75,WSW,238,11.0,16.0,45,0.00,,,0.00,Wunderground v.1.15,2013-03-31 09:10:00,
2013-03-31 11:15:00,66.1,43.5,29.75,WNW,283,12.0,12.0,44,0.00,,,0.00,Wunderground v.1.15,2013-03-31 09:15:00,
2013-03-31 11:25:00,66.4,43.2,29.75,WNW,287,12.0,12.0,43,0.00,,,0.00,Wunderground v.1.15,2013-03-31 09:25:00,
2013-03-31 11:30:00,66.8,44.2,29.76,WSW,244,11.0,12.0,44,0.00,,,0.00,Wunderground v.1.15,2013-03-31 09:30:00,
2013-03-31 11:40:00,67.0,43.1,29.76,WNW,300,9.0,13.0,42,0.00,,,0.00,Wunderground v.1.15,2013-03-31 09:40:00,
2013-03-31 11:45:00,66.7,42.9,29.76,WSW,250,10.0,12.0,42,0.00,,,0.00,Wunderground v.1.15,2013-03-31 09:45:00,
2013-03-31 11:55:00,66.7,42.9,29.76,West,265,12.0,15.0,42,0.00,,,0.00,Wunderground v.1.15,2013-03-31 09:55:00,
2013-03-31 12:05:00,67.0,42.5,29.76,West,276,12.0,12.0,41,0.00,,,0.00,Wunderground v.1.15,2013-03-31 10:05:00,
2013-03-31 12:10:00,67.1,42.6,29.76,WNW,288,12.0,12.0,41,0.00,,,0.00,Wunderground v.1.15,2013-03-31 10:10:00,
2013-03-31 12:15:00,67.4,42.9,29.76,West,280,10.0,10.0,41,0.00,,,0.00,Wunderground v.1.15,2013-03-31 10:15:00,
2013-03-31 12:25:00,64.8,51.9,29.76,South,173,7.0,9.0,63,0.00,,,0.00,Wunderground v.1.15,2013-03-31 10:25:00,
2013-03-31 12:30:00,62.6,51.9,29.76,SSW,213,7.0,9.0,68,0.00,,,0.00,Wunderground v.1.15,2013-03-31 10:30:00,
2013-03-31 12:40:00,62.1,51.8,29.76,SW,236,8.0,12.0,69,0.00,,,0.00,Wunderground v.1.15,2013-03-31 10:40:00,
2013-03-31 12:45:00,61.8,51.9,29.76,SW,235,10.0,10.0,70,0.00,,,0.00,Wunderground v.1.15,2013-03-31 10:45:00,
2013-03-31 12:50:00,61.7,53.0,29.76,South,181,9.0,11.0,73,0.00,,,0.00,Wunderground v.1.15,2013-03-31 10:50:00,
2013-03-31 13:05:00,61.2,52.5,29.76,SW,219,8.0,8.0,73,0.00,,,0.00,Wunderground v.1.15,2013-03-31 11:05:00,
2013-03-31 13:10:00,61.2,52.5,29.75,SW,235,8.0,9.0,73,0.00,,,0.00,Wunderground v.1.15,2013-03-31 11:10:00,
2013-03-31 13:20:00,60.9,52.6,29.75,SSW,211,9.0,9.0,74,0.00,,,0.00,Wunderground v.1.15,2013-03-31 11:20:00,
2013-03-31 13:25:00,61.1,53.1,29.76,SW,218,9.0,9.0,75,0.00,,,0.00,Wunderground v.1.15,2013-03-31 11:25:00,
2013-03-31 13:30:00,61.1,53.1,29.76,SSW,194,9.0,9.0,75,0.00,,,0.00,Wunderground v.1.15,2013-03-31 11:30:00,
2013-03-31 13:40:00,61.3,52.2,29.75,SSW,209,10.0,10.0,72,0.00,,,0.00,Wunderground v.1.15,2013-03-31 11:40:00,
2013-03-31 13:45:00,61.5,52.4,29.75,SW,219,10.0,10.0,72,0.00,,,0.00,Wunderground v.1.15,2013-03-31 11:45:00,
2013-03-31 13:50:00,61.4,53.0,29.75,SW,226,8.0,8.0,74,0.00,,,0.00,Wunderground v.1.15,2013-03-31 11:50:00,
2013-03-31 14:00:00,60.9,52.9,29.75,SSW,213,10.0,10.0,75,0.00,,,0.00,Wunderground v.1.15,2013-03-31 12:00:00,
2013-03-31 14:10:00,60.7,52.7,29.75,SW,232,9.0,10.0,75,0.00,,,0.00,Wunderground v.1.15,2013-03-31 12:10:00,
2013-03-31 14:15:00,60.7,52.7,29.75,SSW,205,11.0,11.0,75,0.00,,,0.00,Wunderground v.1.15,2013-03-31 12:15:00,
2013-03-31 14:25:00,60.8,52.1,29.75,SW,234,13.0,14.0,73,0.00,,,0.00,Wunderground v.1.15,2013-03-31 12:25:00,
2013-03-31 14:35:00,61.3,52.2,29.75,SW,215,13.0,13.0,72,0.00,,,0.00,Wunderground v.1.15,2013-03-31 12:35:00,
2013-03-31 14:40:00,61.8,52.3,29.75,SW,234,11.0,13.0,71,0.00,,,0.00,Wunderground v.1.15,2013-03-31 12:40:00,
2013-03-31 14:45:00,62.0,52.5,29.75,SW,217,9.0,9.0,71,0.00,,,0.00,Wunderground v.1.15,2013-03-31 12:45:00,
2013-03-31 14:55:00,62.0,52.1,29.74,WSW,238,10.0,10.0,70,0.00,,,0.00,Wunderground v.1.15,2013-03-31 12:55:00,
2013-03-31 15:00:00,62.1,51.8,29.74,SW,227,10.0,10.0,69,0.00,,,0.00,Wunderground v.1.15,2013-03-31 13:00:00,
2013-03-31 15:10:00,62.4,50.9,29.74,WSW,238,9.0,10.0,66,0.00,,,0.00,Wunderground v.1.15,2013-03-31 13:10:00,
2013-03-31 15:20:00,62.7,50.8,29.74,SW,222,10.0,12.0,65,0.00,,,0.00,Wunderground v.1.15,2013-03-31 13:20:00,
2013-03-31 15:30:00,63.1,52.4,29.73,WSW,246,9.0,9.0,68,0.00,,,0.00,Wunderground v.1.15,2013-03-31 13:30:00,
2013-03-31 15:40:00,62.7,52.0,29.73,SW,216,7.0,12.0,68,0.00,,,0.00,Wunderground v.1.15,2013-03-31 13:40:00,
2013-03-31 15:45:00,62.9,51.4,29.73,SW,216,7.0,9.0,66,0.00,,,0.00,Wunderground v.1.15,2013-03-31 13:45:00,
2013-03-31 15:54:00,63.4,51.4,29.72,SSW,198,7.0,7.0,65,0.00,,,0.00,Wunderground v.1.15,2013-03-31 13:54:00,
2013-03-31 16:05:00,63.6,51.2,29.72,SW,221,6.0,6.0,64,0.00,,,0.00,Wunderground v.1.15,2013-03-31 14:05:00,
2013-03-31 16:10:00,63.3,51.3,29.71,SW,214,6.0,10.0,65,0.00,,,0.00,Wunderground v.1.15,2013-03-31 14:10:00,
2013-03-31 16:15:00,62.9,51.8,29.72,South,190,8.0,8.0,67,0.00,,,0.00,Wunderground v.1.15,2013-03-31 14:15:00,
2013-03-31 16:20:00,62.3,53.5,29.71,SSW,212,9.0,9.0,73,0.00,,,0.00,Wunderground v.1.15,2013-03-31 14:20:00,
2013-03-31 16:34:00,61.2,53.9,29.71,South,186,8.0,8.0,77,0.00,,,0.00,Wunderground v.1.15,2013-03-31 14:34:00,
2013-03-31 16:40:00,61.0,53.7,29.70,SSW,200,9.0,12.0,77,0.00,,,0.00,Wunderground v.1.15,2013-03-31 14:40:00,
2013-03-31 16:45:00,61.0,54.1,29.70,South,188,9.0,10.0,78,0.00,,,0.00,Wunderground v.1.15,2013-03-31 14:45:00,
2013-03-31 16:55:00,61.0,54.1,29.70,SSW,211,8.0,8.0,78,0.00,,,0.00,Wunderground v.1.15,2013-03-31 14:55:00,
2013-03-31 17:00:00,61.2,53.9,29.70,SSW,205,8.0,8.0,77,0.00,,,0.00,Wunderground v.1.15,2013-03-31 15:00:00,
2013-03-31 17:10:00,61.0,53.4,29.70,South,176,8.0,8.0,76,0.00,,,0.00,Wunderground v.1.15,2013-03-31 15:10:00,
2013-03-31 17:15:00,61.2,53.9,29.70,SW,235,7.0,8.0,77,0.00,,,0.00,Wunderground v.1.15,2013-03-31 15:15:00,
2013-03-31 17:24:00,60.8,53.9,29.70,SSW,209,8.0,8.0,78,0.00,,,0.00,Wunderground v.1.15,2013-03-31 15:24:00,
2013-03-31 17:30:00,61.1,53.5,29.69,SSW,213,6.0,8.0,76,0.00,,,0.00,Wunderground v.1.15,2013-03-31 15:30:00,
2013-03-31 17:39:00,62.6,52.3,29.69,South,180,4.0,5.0,69,0.00,,,0.00,Wunderground v.1.15,2013-03-31 15:39:00,
2013-03-31 17:45:00,62.8,51.7,29.69,South,178,5.0,5.0,67,0.00,,,0.00,Wunderground v.1.15,2013-03-31 15:45:00,
2013-03-31 17:54:00,62.0,52.5,29.68,SW,221,6.0,6.0,71,0.00,,,0.00,Wunderground v.1.15,2013-03-31 15:54:00,
2013-03-31 18:04:00,61.8,53.1,29.69,West,261,7.0,7.0,73,0.00,,,0.00,Wunderground v.1.15,2013-03-31 16:04:00,
2013-03-31 18:09:00,61.5,53.1,29.68,SSW,205,6.0,7.0,74,0.00,,,0.00,Wunderground v.1.15,2013-03-31 16:09:00,
2013-03-31 18:14:00,61.5,53.1,29.68,SSE,168,6.0,6.0,74,0.00,,,0.00,Wunderground v.1.15,2013-03-31 16:14:00,
2013-03-31 18:24:00,60.6,53.0,29.68,SSW,197,6.0,6.0,76,0.00,,,0.00,Wunderground v.1.15,2013-03-31 16:24:00,
2013-03-31 18:34:00,60.2,53.0,29.69,SSW,200,6.0,6.0,77,0.00,,,0.00,Wunderground v.1.15,2013-03-31 16:34:00,
2013-03-31 18:39:00,60.0,53.1,29.68,South,178,6.0,10.0,78,0.00,,,0.00,Wunderground v.1.15,2013-03-31 16:39:00,
2013-03-31 18:44:00,59.8,52.9,29.68,SSW,210,7.0,7.0,78,0.00,,,0.00,Wunderground v.1.15,2013-03-31 16:44:00,
2013-03-31 18:54:00,59.7,53.5,29.69,South,181,6.0,6.0,80,0.00,,,0.00,Wunderground v.1.15,2013-03-31 16:54:00,
2013-03-31 18:59:00,59.6,53.4,29.69,South,186,7.0,7.0,80,0.00,,,0.00,Wunderground v.1.15,2013-03-31 16:59:00,
2013-03-31 19:09:00,59.4,53.6,29.69,SW,219,6.0,8.0,81,0.00,,,0.00,Wunderground v.1.15,2013-03-31 17:09:00,
2013-03-31 19:19:00,59.4,53.6,29.69,South,188,6.0,6.0,81,0.00,,,0.00,Wunderground v.1.15,2013-03-31 17:19:00,
2013-03-31 19:29:00,59.4,53.9,29.68,South,187,6.0,6.0,82,0.00,,,0.00,Wunderground v.1.15,2013-03-31 17:29:00,
2013-03-31 19:40:00,59.2,54.4,29.69,South,176,6.0,6.0,84,0.00,,,0.00,Wunderground v.1.15,2013-03-31 17:40:00,
2013-03-31 19:45:00,59.1,54.3,29.68,SSE,160,5.0,8.0,84,0.00,,,0.00,Wunderground v.1.15,2013-03-31 17:45:00,
2013-03-31 19:55:00,59.1,54.6,29.69,SSE,164,4.0,6.0,85,0.00,,,0.00,Wunderground v.1.15,2013-03-31 17:55:00,
2013-03-31 20:00:00,59.0,54.5,29.69,South,172,4.0,7.0,85,0.00,,,0.00,Wunderground v.1.15,2013-03-31 18:00:00,
2013-03-31 20:10:00,58.9,54.7,29.69,SSE,158,4.0,7.0,86,0.00,,,0.00,Wunderground v.1.15,2013-03-31 18:10:00,
2013-03-31 20:15:00,58.8,54.6,29.68,South,180,3.0,7.0,86,0.00,,,0.00,Wunderground v.1.15,2013-03-31 18:15:00,
2013-03-31 20:20:00,58.8,54.6,29.68,South,169,3.0,7.0,86,0.00,,,0.00,Wunderground v.1.15,2013-03-31 18:20:00,
2013-03-31 20:35:00,58.9,54.7,29.68,SSW,192,2.0,2.0,86,0.00,,,0.00,Wunderground v.1.15,2013-03-31 18:35:00,
2013-03-31 20:40:00,58.9,54.7,29.68,SSW,192,1.0,2.0,86,0.00,,,0.00,Wunderground v.1.15,2013-03-31 18:40:00,
2013-03-31 20:45:00,58.9,54.7,29.68,South,175,1.0,2.0,86,0.00,,,0.00,Wunderground v.1.15,2013-03-31 18:45:00,
2013-03-31 20:50:00,59.0,54.8,29.68,South,175,0.0,2.0,86,0.00,,,0.00,Wunderground v.1.15,2013-03-31 18:50:00,
2013-03-31 21:05:00,59.0,55.1,29.68,South,175,0.0,0.0,87,0.00,,,0.00,Wunderground v.1.15,2013-03-31 19:05:00,
2013-03-31 21:15:00,59.0,55.1,29.68,South,175,0.0,0.0,87,0.00,,,0.00,Wunderground v.1.15,2013-03-31 19:15:00,
2013-03-31 21:25:00,58.9,55.0,29.68,South,175,0.0,0.0,87,0.00,,,0.00,Wunderground v.1.15,2013-03-31 19:25:00,
2013-03-31 21:35:00,58.9,55.0,29.68,SSE,167,0.0,0.0,87,0.00,,,0.00,Wunderground v.1.15,2013-03-31 19:35:00,
2013-03-31 21:40:00,58.9,55.0,29.68,SSE,167,0.0,0.0,87,0.00,,,0.00,Wunderground v.1.15,2013-03-31 19:40:00,
2013-03-31 21:45:00,58.8,54.9,29.68,SSE,167,0.0,0.0,87,0.00,,,0.00,Wunderground v.1.15,2013-03-31 19:45:00,
2013-03-31 21:55:00,58.8,54.9,29.67,SSE,167,0.0,0.0,87,0.00,,,0.00,Wunderground v.1.15,2013-03-31 19:55:00,
2013-03-31 22:00:00,58.9,55.0,29.67,SSE,167,0.0,1.0,87,0.00,,,0.00,Wunderground v.1.15,2013-03-31 20:00:00,
2013-03-31 22:10:00,58.9,55.4,29.67,SSE,155,1.0,1.0,88,0.00,,,0.00,Wunderground v.1.15,2013-03-31 20:10:00,
2013-03-31 22:20:00,58.8,54.9,29.67,SE,136,2.0,2.0,87,0.00,,,0.00,Wunderground v.1.15,2013-03-31 20:20:00,
2013-03-31 22:25:00,58.8,54.9,29.67,SE,136,1.0,2.0,87,0.00,,,0.00,Wunderground v.1.15,2013-03-31 20:25:00,
2013-03-31 22:35:00,58.7,54.8,29.67,SE,136,0.0,0.0,87,0.00,,,0.00,Wunderground v.1.15,2013-03-31 20:35:00,
2013-03-31 22:40:00,58.7,54.8,29.67,SE,136,0.0,0.0,87,0.00,,,0.00,Wunderground v.1.15,2013-03-31 20:40:00,
2013-03-31 22:45:00,58.7,54.8,29.67,SE,136,0.0,0.0,87,0.00,,,0.00,Wunderground v.1.15,2013-03-31 20:45:00,
2013-03-31 22:55:00,58.6,54.7,29.67,SE,137,0.0,0.0,87,0.00,,,0.00,Wunderground v.1.15,2013-03-31 20:55:00,
2013-03-31 23:00:00,58.6,54.7,29.67,SE,136,0.0,0.0,87,0.00,,,0.00,Wunderground v.1.15,2013-03-31 21:00:00,
2013-03-31 23:10:00,58.4,54.5,29.66,SE,136,0.0,0.0,87,0.00,,,0.00,Wunderground v.1.15,2013-03-31 21:10:00,
2013-03-31 23:15:00,58.4,54.5,29.66,SE,136,0.0,0.0,87,0.00,,,0.00,Wunderground v.1.15,2013-03-31 21:15:00,
2013-03-31 23:20:00,58.4,54.5,29.66,SE,136,0.0,0.0,87,0.00,,,0.00,Wunderground v.1.15,2013-03-31 21:20:00,
2013-03-31 23:30:00,58.2,54.3,29.65,SE,136,0.0,0.0,87,0.00,,,0.00,Wunderground v.1.15,2013-03-31 21:30:00,
2013-03-31 23:40:00,58.2,54.3,29.65,SE,136,0.0,0.0,87,0.00,,,0.00,Wunderground v.1.15,2013-03-31 21:40:00,
2013-03-31 23:45:00,58.3,54.4,29.65,SE,136,0.0,0.0,87,0.00,,,0.00,Wunderground v.1.15,2013-03-31 21:45:00,
2013-03-31 23:54:00,58.4,54.5,29.65,SE,136,0.0,0.0,87,0.00,,,0.00,Wunderground v.1.15,2013-03-31 21:54:00,